Year,Month,Day,Hour,Minute,Value (Times are PST for temperature in C)
2018,09,27,00,00,11.60
2018,09,27,00,01,11.60
2018,09,27,00,02,11.60
2018,09,27,00,03,11.50
2018,09,27,00,04,11.50
2018,09,27,00,05,11.50
2018,09,27,00,06,11.50
2018,09,27,00,07,11.40
2018,09,27,00,08,11.40
2018,09,27,00,09,11.40
2018,09,27,00,10,11.40
2018,09,27,00,11,11.40
2018,09,27,00,12,11.40
2018,09,27,00,13,11.30
2018,09,27,00,14,11.30
2018,09,27,00,15,11.30
2018,09,27,00,16,11.30
2018,09,27,00,17,11.30
2018,09,27,00,18,11.30
2018,09,27,00,19,11.30
2018,09,27,00,20,11.30
2018,09,27,00,21,11.30
2018,09,27,00,22,11.30
2018,09,27,00,23,11.30
2018,09,27,00,24,11.30
2018,09,27,00,25,11.20
2018,09,27,00,26,11.20
2018,09,27,00,27,11.20
2018,09,27,00,28,11.20
2018,09,27,00,29,11.20
2018,09,27,00,30,11.20
2018,09,27,00,31,11.20
2018,09,27,00,32,11.20
2018,09,27,00,33,11.10
2018,09,27,00,34,11.10
2018,09,27,00,35,11.10
2018,09,27,00,36,11.10
2018,09,27,00,37,11.10
2018,09,27,00,38,11.10
2018,09,27,00,39,11.10
2018,09,27,00,40,11.10
2018,09,27,00,41,11.10
2018,09,27,00,42,11.10
2018,09,27,00,43,11.10
2018,09,27,00,44,11.10
2018,09,27,00,45,11.00
2018,09,27,00,46,11.10
2018,09,27,00,47,11.10
2018,09,27,00,48,11.00
2018,09,27,00,49,11.00
2018,09,27,00,50,11.00
2018,09,27,00,51,11.00
2018,09,27,00,52,11.00
2018,09,27,00,53,11.00
2018,09,27,00,54,11.00
2018,09,27,00,55,10.90
2018,09,27,00,56,10.90
2018,09,27,00,57,10.90
2018,09,27,00,58,10.90
2018,09,27,00,59,10.90
2018,09,27,01,00,10.90
2018,09,27,01,01,10.90
2018,09,27,01,02,11.00
2018,09,27,01,03,11.00
2018,09,27,01,04,10.90
2018,09,27,01,05,10.90
2018,09,27,01,06,10.90
2018,09,27,01,07,10.90
2018,09,27,01,08,10.90
2018,09,27,01,09,10.90
2018,09,27,01,10,10.90
2018,09,27,01,11,10.90
2018,09,27,01,12,10.90
2018,09,27,01,13,10.90
2018,09,27,01,14,10.90
2018,09,27,01,15,10.90
2018,09,27,01,16,10.90
2018,09,27,01,17,10.90
2018,09,27,01,18,10.90
2018,09,27,01,19,10.80
2018,09,27,01,20,10.80
2018,09,27,01,21,10.80
2018,09,27,01,22,10.80
2018,09,27,01,23,10.80
2018,09,27,01,24,10.80
2018,09,27,01,25,10.80
2018,09,27,01,26,10.80
2018,09,27,01,27,10.80
2018,09,27,01,28,10.80
2018,09,27,01,29,10.80
2018,09,27,01,30,10.80
2018,09,27,01,31,10.80
2018,09,27,01,32,10.80
2018,09,27,01,33,10.70
2018,09,27,01,34,10.70
2018,09,27,01,35,10.70
2018,09,27,01,36,10.70
2018,09,27,01,37,10.70
2018,09,27,01,38,10.70
2018,09,27,01,39,10.70
2018,09,27,01,40,10.70
2018,09,27,01,41,10.70
2018,09,27,01,42,10.70
2018,09,27,01,43,10.70
2018,09,27,01,44,10.70
2018,09,27,01,45,10.70
2018,09,27,01,46,10.60
2018,09,27,01,47,10.60
2018,09,27,01,48,10.60
2018,09,27,01,49,10.60
2018,09,27,01,50,10.60
2018,09,27,01,51,10.60
2018,09,27,01,52,10.60
2018,09,27,01,53,10.60
2018,09,27,01,54,10.60
2018,09,27,01,55,10.60
2018,09,27,01,56,10.60
2018,09,27,01,57,10.60
2018,09,27,01,58,10.60
2018,09,27,01,59,10.60
2018,09,27,02,00,10.60
2018,09,27,02,01,10.60
2018,09,27,02,02,10.50
2018,09,27,02,03,10.50
2018,09,27,02,04,10.50
2018,09,27,02,05,10.50
2018,09,27,02,06,10.50
2018,09,27,02,07,10.50
2018,09,27,02,08,10.50
2018,09,27,02,09,10.50
2018,09,27,02,10,10.50
2018,09,27,02,11,10.50
2018,09,27,02,12,10.40
2018,09,27,02,13,10.40
2018,09,27,02,14,10.40
2018,09,27,02,15,10.40
2018,09,27,02,16,10.40
2018,09,27,02,17,10.40
2018,09,27,02,18,10.40
2018,09,27,02,19,10.30
2018,09,27,02,20,10.30
2018,09,27,02,21,10.30
2018,09,27,02,22,10.30
2018,09,27,02,23,10.40
2018,09,27,02,24,10.40
2018,09,27,02,25,10.40
2018,09,27,02,26,10.30
2018,09,27,02,27,10.30
2018,09,27,02,28,10.30
2018,09,27,02,29,10.30
2018,09,27,02,30,10.30
2018,09,27,02,31,10.30
2018,09,27,02,32,10.30
2018,09,27,02,33,10.30
2018,09,27,02,34,10.30
2018,09,27,02,35,10.30
2018,09,27,02,36,10.30
2018,09,27,02,37,10.30
2018,09,27,02,38,10.30
2018,09,27,02,39,10.30
2018,09,27,02,40,10.30
2018,09,27,02,41,10.30
2018,09,27,02,42,10.30
2018,09,27,02,43,10.30
2018,09,27,02,44,10.30
2018,09,27,02,45,10.30
2018,09,27,02,46,10.20
2018,09,27,02,47,10.20
2018,09,27,02,48,10.20
2018,09,27,02,49,10.10
2018,09,27,02,50,10.10
2018,09,27,02,51,10.10
2018,09,27,02,52,10.10
2018,09,27,02,53,10.10
2018,09,27,02,54,10.10
2018,09,27,02,55,10.10
2018,09,27,02,56,10.10
2018,09,27,02,57,10.10
2018,09,27,02,58,10.00
2018,09,27,02,59,10.00
2018,09,27,03,00,10.00
2018,09,27,03,01,10.00
2018,09,27,03,02,10.00
2018,09,27,03,03,10.00
2018,09,27,03,04,10.00
2018,09,27,03,05,10.00
2018,09,27,03,06,10.00
2018,09,27,03,07,9.90
2018,09,27,03,08,9.90
2018,09,27,03,09,9.90
2018,09,27,03,10,9.90
2018,09,27,03,11,9.90
2018,09,27,03,12,9.90
2018,09,27,03,13,9.90
2018,09,27,03,14,9.90
2018,09,27,03,15,9.90
2018,09,27,03,16,9.90
2018,09,27,03,17,9.90
2018,09,27,03,18,9.90
2018,09,27,03,19,9.90
2018,09,27,03,20,9.80
2018,09,27,03,21,9.80
2018,09,27,03,22,9.80
2018,09,27,03,23,9.80
2018,09,27,03,24,9.80
2018,09,27,03,25,9.80
2018,09,27,03,26,9.80
2018,09,27,03,27,9.80
2018,09,27,03,28,9.80
2018,09,27,03,29,9.70
2018,09,27,03,30,9.70
2018,09,27,03,31,9.70
2018,09,27,03,32,9.70
2018,09,27,03,33,9.70
2018,09,27,03,34,9.70
2018,09,27,03,35,9.70
2018,09,27,03,36,9.70
2018,09,27,03,37,9.70
2018,09,27,03,38,9.70
2018,09,27,03,39,9.70
2018,09,27,03,40,9.70
2018,09,27,03,41,9.70
2018,09,27,03,42,9.70
2018,09,27,03,43,9.70
2018,09,27,03,44,9.70
2018,09,27,03,45,9.60
2018,09,27,03,46,9.60
2018,09,27,03,47,9.60
2018,09,27,03,48,9.60
2018,09,27,03,49,9.60
2018,09,27,03,50,9.60
2018,09,27,03,51,9.60
2018,09,27,03,52,9.60
2018,09,27,03,53,9.60
2018,09,27,03,54,9.60
2018,09,27,03,55,9.60
2018,09,27,03,56,9.50
2018,09,27,03,57,9.50
2018,09,27,03,58,9.50
2018,09,27,03,59,9.50
2018,09,27,04,00,9.40
2018,09,27,04,01,9.40
2018,09,27,04,02,9.40
2018,09,27,04,03,9.40
2018,09,27,04,04,9.40
2018,09,27,04,05,9.40
2018,09,27,04,06,9.40
2018,09,27,04,07,9.40
2018,09,27,04,08,9.40
2018,09,27,04,09,9.40
2018,09,27,04,10,9.40
2018,09,27,04,11,9.30
2018,09,27,04,12,9.30
2018,09,27,04,13,9.30
2018,09,27,04,14,9.30
2018,09,27,04,15,9.30
2018,09,27,04,16,9.30
2018,09,27,04,17,9.30
2018,09,27,04,18,9.30
2018,09,27,04,19,9.30
2018,09,27,04,20,9.30
2018,09,27,04,21,9.20
2018,09,27,04,22,9.20
2018,09,27,04,23,9.20
2018,09,27,04,24,9.20
2018,09,27,04,25,9.20
2018,09,27,04,26,9.20
2018,09,27,04,27,9.20
2018,09,27,04,28,9.20
2018,09,27,04,29,9.20
2018,09,27,04,30,9.20
2018,09,27,04,31,9.20
2018,09,27,04,32,9.20
2018,09,27,04,33,9.20
2018,09,27,04,34,9.10
2018,09,27,04,35,9.10
2018,09,27,04,36,9.10
2018,09,27,04,37,9.10
2018,09,27,04,38,9.10
2018,09,27,04,39,9.10
2018,09,27,04,40,9.10
2018,09,27,04,41,9.10
2018,09,27,04,42,9.10
2018,09,27,04,43,9.10
2018,09,27,04,44,9.10
2018,09,27,04,45,9.00
2018,09,27,04,46,9.00
2018,09,27,04,47,9.00
2018,09,27,04,48,9.00
2018,09,27,04,49,9.00
2018,09,27,04,50,9.00
2018,09,27,04,51,9.00
2018,09,27,04,52,9.00
2018,09,27,04,53,9.00
2018,09,27,04,54,8.90
2018,09,27,04,55,8.90
2018,09,27,04,56,8.90
2018,09,27,04,57,8.90
2018,09,27,04,58,8.90
2018,09,27,04,59,8.80
2018,09,27,05,00,8.80
2018,09,27,05,01,8.80
2018,09,27,05,02,8.80
2018,09,27,05,03,8.90
2018,09,27,05,04,8.90
2018,09,27,05,05,8.90
2018,09,27,05,06,8.90
2018,09,27,05,07,8.90
2018,09,27,05,08,8.80
2018,09,27,05,09,8.80
2018,09,27,05,10,8.80
2018,09,27,05,11,8.80
2018,09,27,05,12,8.80
2018,09,27,05,13,8.80
2018,09,27,05,14,8.80
2018,09,27,05,15,8.80
2018,09,27,05,16,8.80
2018,09,27,05,17,8.80
2018,09,27,05,18,8.80
2018,09,27,05,19,8.80
2018,09,27,05,20,8.80
2018,09,27,05,21,8.80
2018,09,27,05,22,8.80
2018,09,27,05,23,8.80
2018,09,27,05,24,8.80
2018,09,27,05,25,8.80
2018,09,27,05,26,8.80
2018,09,27,05,27,8.80
2018,09,27,05,28,8.80
2018,09,27,05,29,8.80
2018,09,27,05,30,8.70
2018,09,27,05,31,8.80
2018,09,27,05,32,8.80
2018,09,27,05,33,8.80
2018,09,27,05,34,8.70
2018,09,27,05,35,8.70
2018,09,27,05,36,8.70
2018,09,27,05,37,8.70
2018,09,27,05,38,8.70
2018,09,27,05,39,8.70
2018,09,27,05,40,8.70
2018,09,27,05,41,8.70
2018,09,27,05,42,8.70
2018,09,27,05,43,8.70
2018,09,27,05,44,8.70
2018,09,27,05,45,8.70
2018,09,27,05,46,8.70
2018,09,27,05,47,8.60
2018,09,27,05,48,8.60
2018,09,27,05,49,8.60
2018,09,27,05,50,8.60
2018,09,27,05,51,8.60
2018,09,27,05,52,8.60
2018,09,27,05,53,8.60
2018,09,27,05,54,8.50
2018,09,27,05,55,8.60
2018,09,27,05,56,8.60
2018,09,27,05,57,8.60
2018,09,27,05,58,8.60
2018,09,27,05,59,8.50
2018,09,27,06,00,8.50
2018,09,27,06,01,8.50
2018,09,27,06,02,8.50
2018,09,27,06,03,8.50
2018,09,27,06,04,8.50
2018,09,27,06,05,8.50
2018,09,27,06,06,8.50
2018,09,27,06,07,8.50
2018,09,27,06,08,8.40
2018,09,27,06,09,8.40
2018,09,27,06,10,8.40
2018,09,27,06,11,8.40
2018,09,27,06,12,8.40
2018,09,27,06,13,8.40
2018,09,27,06,14,8.40
2018,09,27,06,15,8.40
2018,09,27,06,16,8.40
2018,09,27,06,17,8.40
2018,09,27,06,18,8.40
2018,09,27,06,19,8.40
2018,09,27,06,20,8.40
2018,09,27,06,21,8.40
2018,09,27,06,22,8.40
2018,09,27,06,23,8.40
2018,09,27,06,24,8.40
2018,09,27,06,25,8.40
2018,09,27,06,26,8.40
2018,09,27,06,27,8.40
2018,09,27,06,28,8.30
2018,09,27,06,29,8.30
2018,09,27,06,30,8.30
2018,09,27,06,31,8.30
2018,09,27,06,32,8.30
2018,09,27,06,33,8.30
2018,09,27,06,34,8.30
2018,09,27,06,35,8.30
2018,09,27,06,36,8.30
2018,09,27,06,37,8.30
2018,09,27,06,38,8.30
2018,09,27,06,39,8.30
2018,09,27,06,40,8.30
2018,09,27,06,41,8.30
2018,09,27,06,42,8.30
2018,09,27,06,43,8.30
2018,09,27,06,44,8.30
2018,09,27,06,45,8.30
2018,09,27,06,46,8.30
2018,09,27,06,47,8.30
2018,09,27,06,48,8.20
2018,09,27,06,49,8.20
2018,09,27,06,50,8.20
2018,09,27,06,51,8.20
2018,09,27,06,52,8.20
2018,09,27,06,53,8.20
2018,09,27,06,54,8.20
2018,09,27,06,55,8.20
2018,09,27,06,56,8.20
2018,09,27,06,57,8.20
2018,09,27,06,58,8.20
2018,09,27,06,59,8.20
2018,09,27,07,00,8.20
2018,09,27,07,01,8.20
2018,09,27,07,02,8.20
2018,09,27,07,03,8.20
2018,09,27,07,04,8.20
2018,09,27,07,05,8.10
2018,09,27,07,06,8.10
2018,09,27,07,07,8.10
2018,09,27,07,08,8.10
2018,09,27,07,09,8.10
2018,09,27,07,10,8.10
2018,09,27,07,11,8.10
2018,09,27,07,12,8.10
2018,09,27,07,13,8.10
2018,09,27,07,14,8.10
2018,09,27,07,15,8.10
2018,09,27,07,16,8.10
2018,09,27,07,17,8.10
2018,09,27,07,18,8.00
2018,09,27,07,19,8.00
2018,09,27,07,20,8.00
2018,09,27,07,21,8.00
2018,09,27,07,22,8.00
2018,09,27,07,23,8.00
2018,09,27,07,24,8.00
2018,09,27,07,25,8.00
2018,09,27,07,26,8.00
2018,09,27,07,27,8.00
2018,09,27,07,28,7.90
2018,09,27,07,29,7.90
2018,09,27,07,30,7.90
2018,09,27,07,31,7.90
2018,09,27,07,32,7.90
2018,09,27,07,33,7.90
2018,09,27,07,34,7.90
2018,09,27,07,35,7.90
2018,09,27,07,36,7.90
2018,09,27,07,37,7.90
2018,09,27,07,38,7.90
2018,09,27,07,39,7.90
2018,09,27,07,40,7.90
2018,09,27,07,41,7.90
2018,09,27,07,42,7.90
2018,09,27,07,43,7.90
2018,09,27,07,44,7.90
2018,09,27,07,45,7.90
2018,09,27,07,46,7.90
2018,09,27,07,47,7.90
2018,09,27,07,48,7.90
2018,09,27,07,49,7.90
2018,09,27,07,50,7.90
2018,09,27,07,51,7.90
2018,09,27,07,52,7.90
2018,09,27,07,53,7.90
2018,09,27,07,54,7.90
2018,09,27,07,55,7.90
2018,09,27,07,56,7.90
2018,09,27,07,57,7.90
2018,09,27,07,58,7.90
2018,09,27,07,59,7.90
2018,09,27,08,00,7.90
2018,09,27,08,01,7.90
2018,09,27,08,02,7.90
2018,09,27,08,03,8.00
2018,09,27,08,04,8.00
2018,09,27,08,05,8.00
2018,09,27,08,06,8.00
2018,09,27,08,07,8.00
2018,09,27,08,08,8.00
2018,09,27,08,09,8.00
2018,09,27,08,10,8.00
2018,09,27,08,11,8.00
2018,09,27,08,12,8.00
2018,09,27,08,13,8.10
2018,09,27,08,14,8.10
2018,09,27,08,15,8.10
2018,09,27,08,16,8.10
2018,09,27,08,17,8.10
2018,09,27,08,18,8.10
2018,09,27,08,19,8.10
2018,09,27,08,20,8.10
2018,09,27,08,21,8.10
2018,09,27,08,22,8.10
2018,09,27,08,23,8.10
2018,09,27,08,24,8.10
2018,09,27,08,25,8.20
2018,09,27,08,26,8.20
2018,09,27,08,27,8.20
2018,09,27,08,28,8.20
2018,09,27,08,29,8.20
2018,09,27,08,30,8.30
2018,09,27,08,31,8.30
2018,09,27,08,32,8.30
2018,09,27,08,33,8.30
2018,09,27,08,34,8.40
2018,09,27,08,35,8.40
2018,09,27,08,36,8.40
2018,09,27,08,37,8.40
2018,09,27,08,38,8.50
2018,09,27,08,39,8.50
2018,09,27,08,40,8.60
2018,09,27,08,41,8.60
2018,09,27,08,42,8.70
2018,09,27,08,43,8.80
2018,09,27,08,44,8.80
2018,09,27,08,45,8.90
2018,09,27,08,46,8.90
2018,09,27,08,47,9.00
2018,09,27,08,48,9.00
2018,09,27,08,49,9.10
2018,09,27,08,50,9.20
2018,09,27,08,51,9.20
2018,09,27,08,52,9.20
2018,09,27,08,53,9.20
2018,09,27,08,54,9.30
2018,09,27,08,55,9.40
2018,09,27,08,56,9.50
2018,09,27,08,57,9.60
2018,09,27,08,58,9.60
2018,09,27,08,59,9.70
2018,09,27,09,00,9.70
2018,09,27,09,01,9.80
2018,09,27,09,02,9.80
2018,09,27,09,03,9.90
2018,09,27,09,04,10.00
2018,09,27,09,05,10.00
2018,09,27,09,06,10.10
2018,09,27,09,07,10.10
2018,09,27,09,08,10.20
2018,09,27,09,09,10.30
2018,09,27,09,10,10.40
2018,09,27,09,11,10.50
2018,09,27,09,12,10.50
2018,09,27,09,13,10.60
2018,09,27,09,14,10.60
2018,09,27,09,15,10.70
2018,09,27,09,16,10.80
2018,09,27,09,17,10.80
2018,09,27,09,18,10.90
2018,09,27,09,19,11.00
2018,09,27,09,20,11.10
2018,09,27,09,21,11.10
2018,09,27,09,22,11.20
2018,09,27,09,23,11.30
2018,09,27,09,24,11.40
2018,09,27,09,25,11.50
2018,09,27,09,26,11.60
2018,09,27,09,27,11.70
2018,09,27,09,28,11.70
2018,09,27,09,29,11.80
2018,09,27,09,30,11.80
2018,09,27,09,31,11.90
2018,09,27,09,32,12.00
2018,09,27,09,33,12.10
2018,09,27,09,34,12.20
2018,09,27,09,35,12.30
2018,09,27,09,36,12.30
2018,09,27,09,37,12.40
2018,09,27,09,38,12.40
2018,09,27,09,39,12.50
2018,09,27,09,40,12.60
2018,09,27,09,41,12.60
2018,09,27,09,42,12.70
2018,09,27,09,43,12.80
2018,09,27,09,44,12.90
2018,09,27,09,45,12.90
2018,09,27,09,46,13.00
2018,09,27,09,47,13.10
2018,09,27,09,48,13.10
2018,09,27,09,49,13.20
2018,09,27,09,50,13.30
2018,09,27,09,51,13.30
2018,09,27,09,52,13.40
2018,09,27,09,53,13.50
2018,09,27,09,54,13.60
2018,09,27,09,55,13.60
2018,09,27,09,56,13.70
2018,09,27,09,57,13.80
2018,09,27,09,58,13.80
2018,09,27,09,59,13.90
2018,09,27,10,00,14.00
2018,09,27,10,01,14.00
2018,09,27,10,02,14.10
2018,09,27,10,03,14.10
2018,09,27,10,04,14.20
2018,09,27,10,05,14.20
2018,09,27,10,06,14.20
2018,09,27,10,07,14.30
2018,09,27,10,08,14.30
2018,09,27,10,09,14.40
2018,09,27,10,10,14.40
2018,09,27,10,11,14.50
2018,09,27,10,12,14.60
2018,09,27,10,13,14.60
2018,09,27,10,14,14.70
2018,09,27,10,15,14.80
2018,09,27,10,16,14.90
2018,09,27,10,17,15.00
2018,09,27,10,18,15.10
2018,09,27,10,19,15.20
2018,09,27,10,20,15.20
2018,09,27,10,21,15.30
2018,09,27,10,22,15.30
2018,09,27,10,23,15.40
2018,09,27,10,24,15.40
2018,09,27,10,25,15.50
2018,09,27,10,26,15.60
2018,09,27,10,27,15.60
2018,09,27,10,28,15.70
2018,09,27,10,29,15.80
2018,09,27,10,30,15.90
2018,09,27,10,31,16.00
2018,09,27,10,32,16.10
2018,09,27,10,33,16.10
2018,09,27,10,34,16.20
2018,09,27,10,35,16.20
2018,09,27,10,36,16.20
2018,09,27,10,37,16.30
2018,09,27,10,38,16.40
2018,09,27,10,39,16.40
2018,09,27,10,40,16.50
2018,09,27,10,41,16.60
2018,09,27,10,42,16.70
2018,09,27,10,43,16.70
2018,09,27,10,44,16.80
2018,09,27,10,45,16.90
2018,09,27,10,46,16.90
2018,09,27,10,47,17.00
2018,09,27,10,48,17.10
2018,09,27,10,49,17.20
2018,09,27,10,50,17.20
2018,09,27,10,51,17.30
2018,09,27,10,52,17.40
2018,09,27,10,53,17.40
2018,09,27,10,54,17.50
2018,09,27,10,55,17.60
2018,09,27,10,56,17.70
2018,09,27,10,57,17.80
2018,09,27,10,58,17.90
2018,09,27,10,59,17.90
2018,09,27,11,00,18.00
2018,09,27,11,01,18.10
2018,09,27,11,02,18.30
2018,09,27,11,03,18.30
2018,09,27,11,04,18.40
2018,09,27,11,05,18.40
2018,09,27,11,06,18.40
2018,09,27,11,07,18.50
2018,09,27,11,08,18.50
2018,09,27,11,09,18.60
2018,09,27,11,10,18.60
2018,09,27,11,11,18.60
2018,09,27,11,12,18.70
2018,09,27,11,13,18.70
2018,09,27,11,14,18.70
2018,09,27,11,15,18.80
2018,09,27,11,16,18.80
2018,09,27,11,17,18.80
2018,09,27,11,18,18.80
2018,09,27,11,19,18.80
2018,09,27,11,20,18.90
2018,09,27,11,21,18.90
2018,09,27,11,22,19.00
2018,09,27,11,23,19.00
2018,09,27,11,24,19.00
2018,09,27,11,25,19.00
2018,09,27,11,26,19.00
2018,09,27,11,27,19.10
2018,09,27,11,28,19.20
2018,09,27,11,29,19.20
2018,09,27,11,30,19.20
2018,09,27,11,31,19.30
2018,09,27,11,32,19.30
2018,09,27,11,33,19.30
2018,09,27,11,34,19.40
2018,09,27,11,35,19.40
2018,09,27,11,36,19.50
2018,09,27,11,37,19.50
2018,09,27,11,38,19.60
2018,09,27,11,39,19.60
2018,09,27,11,40,19.60
2018,09,27,11,41,19.60
2018,09,27,11,42,19.60
2018,09,27,11,43,19.50
2018,09,27,11,44,19.50
2018,09,27,11,45,19.50
2018,09,27,11,46,19.60
2018,09,27,11,47,19.60
2018,09,27,11,48,19.70
2018,09,27,11,49,19.80
2018,09,27,11,50,19.80
2018,09,27,11,51,19.80
2018,09,27,11,52,19.90
2018,09,27,11,53,19.90
2018,09,27,11,54,19.90
2018,09,27,11,55,19.90
2018,09,27,11,56,19.90
2018,09,27,11,57,19.90
2018,09,27,11,58,19.90
2018,09,27,11,59,19.90
2018,09,27,12,00,20.00
2018,09,27,12,01,20.10
2018,09,27,12,02,20.10
2018,09,27,12,03,20.10
2018,09,27,12,04,20.20
2018,09,27,12,05,20.20
2018,09,27,12,06,20.30
2018,09,27,12,08,20.40
2018,09,27,12,09,20.50
2018,09,27,12,10,20.50
2018,09,27,12,11,20.60
2018,09,27,12,12,20.60
2018,09,27,12,13,20.70
2018,09,27,12,14,20.80
2018,09,27,12,15,20.80
2018,09,27,12,16,20.90
2018,09,27,12,17,20.90
2018,09,27,12,18,21.00
2018,09,27,12,19,21.00
2018,09,27,12,20,21.20
2018,09,27,12,21,21.30
2018,09,27,12,22,21.40
2018,09,27,12,23,21.50
2018,09,27,12,24,21.60
2018,09,27,12,25,21.70
2018,09,27,12,26,21.70
2018,09,27,12,27,21.80
2018,09,27,12,28,21.80
2018,09,27,12,29,21.80
2018,09,27,12,30,21.80
2018,09,27,12,31,21.80
2018,09,27,12,32,21.80
2018,09,27,12,33,21.80
2018,09,27,12,34,21.80
2018,09,27,12,35,21.80
2018,09,27,12,36,21.80
2018,09,27,12,37,21.80
2018,09,27,12,38,21.80
2018,09,27,12,39,21.80
2018,09,27,12,40,21.80
2018,09,27,12,41,21.80
2018,09,27,12,42,21.80
2018,09,27,12,43,21.80
2018,09,27,12,44,21.90
2018,09,27,12,45,21.90
2018,09,27,12,46,22.00
2018,09,27,12,47,22.00
2018,09,27,12,48,22.00
2018,09,27,12,49,22.10
2018,09,27,12,50,22.20
2018,09,27,12,51,22.30
2018,09,27,12,52,22.30
2018,09,27,12,53,22.40
2018,09,27,12,54,22.40
2018,09,27,12,55,22.40
2018,09,27,12,56,22.40
2018,09,27,12,57,22.40
2018,09,27,12,58,22.40
2018,09,27,12,59,22.40
2018,09,27,13,00,22.40
2018,09,27,13,01,22.40
2018,09,27,13,02,22.50
2018,09,27,13,03,22.50
2018,09,27,13,04,22.60
2018,09,27,13,05,22.60
2018,09,27,13,06,22.60
2018,09,27,13,07,22.70
2018,09,27,13,08,22.80
2018,09,27,13,09,22.80
2018,09,27,13,10,22.80
2018,09,27,13,11,22.90
2018,09,27,13,12,23.00
2018,09,27,13,13,23.10
2018,09,27,13,14,23.20
2018,09,27,13,15,23.20
2018,09,27,13,16,23.20
2018,09,27,13,17,23.30
2018,09,27,13,18,23.30
2018,09,27,13,19,23.30
2018,09,27,13,20,23.40
2018,09,27,13,21,23.50
2018,09,27,13,22,23.60
2018,09,27,13,23,23.70
2018,09,27,13,24,23.80
2018,09,27,13,25,23.80
2018,09,27,13,26,23.90
2018,09,27,13,27,23.90
2018,09,27,13,28,23.90
2018,09,27,13,29,24.00
2018,09,27,13,30,24.00
2018,09,27,13,31,24.10
2018,09,27,13,32,24.10
2018,09,27,13,33,24.20
2018,09,27,13,34,24.30
2018,09,27,13,35,24.30
2018,09,27,13,36,24.30
2018,09,27,13,37,24.30
2018,09,27,13,38,24.30
2018,09,27,13,39,24.30
2018,09,27,13,40,24.30
2018,09,27,13,41,24.20
2018,09,27,13,42,24.20
2018,09,27,13,43,24.20
2018,09,27,13,44,24.20
2018,09,27,13,45,24.20
2018,09,27,13,46,24.20
2018,09,27,13,47,24.20
2018,09,27,13,48,24.20
2018,09,27,13,49,24.20
2018,09,27,13,50,24.20
2018,09,27,13,51,24.30
2018,09,27,13,52,24.30
2018,09,27,13,53,24.40
2018,09,27,13,54,24.30
2018,09,27,13,55,24.30
2018,09,27,13,56,24.30
2018,09,27,13,57,24.30
2018,09,27,13,58,24.30
2018,09,27,13,59,24.40
2018,09,27,14,00,24.40
2018,09,27,14,01,24.40
2018,09,27,14,02,24.40
2018,09,27,14,03,24.50
2018,09,27,14,04,24.50
2018,09,27,14,05,24.60
2018,09,27,14,06,24.60
2018,09,27,14,07,24.60
2018,09,27,14,08,24.60
2018,09,27,14,09,24.60
2018,09,27,14,10,24.60
2018,09,27,14,11,24.70
2018,09,27,14,12,24.70
2018,09,27,14,13,24.70
2018,09,27,14,14,24.70
2018,09,27,14,15,24.80
2018,09,27,14,16,24.70
2018,09,27,14,17,24.70
2018,09,27,14,18,24.70
2018,09,27,14,19,24.70
2018,09,27,14,20,24.70
2018,09,27,14,21,24.60
2018,09,27,14,22,24.60
2018,09,27,14,23,24.60
2018,09,27,14,24,24.60
2018,09,27,14,25,24.70
2018,09,27,14,26,24.70
2018,09,27,14,27,24.70
2018,09,27,14,28,24.70
2018,09,27,14,29,24.70
2018,09,27,14,30,24.80
2018,09,27,14,31,24.80
2018,09,27,14,32,24.80
2018,09,27,14,33,24.80
2018,09,27,14,34,24.80
2018,09,27,14,35,24.80
2018,09,27,14,36,24.90
2018,09,27,14,37,25.00
2018,09,27,14,38,25.00
2018,09,27,14,39,25.10
2018,09,27,14,40,25.10
2018,09,27,14,41,25.10
2018,09,27,14,42,25.10
2018,09,27,14,43,25.00
2018,09,27,14,44,25.00
2018,09,27,14,45,25.00
2018,09,27,14,46,25.00
2018,09,27,14,47,25.00
2018,09,27,14,48,25.10
2018,09,27,14,49,25.10
2018,09,27,14,50,25.10
2018,09,27,14,51,25.10
2018,09,27,14,52,25.10
2018,09,27,14,53,25.20
2018,09,27,14,54,25.20
2018,09,27,14,55,25.10
2018,09,27,14,56,25.10
2018,09,27,14,57,25.10
2018,09,27,14,58,25.10
2018,09,27,14,59,25.20
2018,09,27,15,00,25.20
2018,09,27,15,01,25.20
2018,09,27,15,02,25.20
2018,09,27,15,03,25.20
2018,09,27,15,04,25.20
2018,09,27,15,05,25.30
2018,09,27,15,06,25.30
2018,09,27,15,07,25.30
2018,09,27,15,08,25.40
2018,09,27,15,09,25.40
2018,09,27,15,10,25.40
2018,09,27,15,11,25.40
2018,09,27,15,12,25.40
2018,09,27,15,13,25.40
2018,09,27,15,14,25.40
2018,09,27,15,15,25.40
2018,09,27,15,16,25.40
2018,09,27,15,17,25.40
2018,09,27,15,18,25.40
2018,09,27,15,19,25.40
2018,09,27,15,20,25.40
2018,09,27,15,21,25.40
2018,09,27,15,22,25.40
2018,09,27,15,23,25.40
2018,09,27,15,24,25.40
2018,09,27,15,25,25.40
2018,09,27,15,26,25.40
2018,09,27,15,27,25.50
2018,09,27,15,28,25.50
2018,09,27,15,29,25.40
2018,09,27,15,30,25.40
2018,09,27,15,31,25.50
2018,09,27,15,32,25.50
2018,09,27,15,33,25.50
2018,09,27,15,34,25.50
2018,09,27,15,35,25.50
2018,09,27,15,36,25.60
2018,09,27,15,37,25.60
2018,09,27,15,38,25.60
2018,09,27,15,39,25.60
2018,09,27,15,40,25.60
2018,09,27,15,41,25.60
2018,09,27,15,42,25.60
2018,09,27,15,43,25.60
2018,09,27,15,44,25.60
2018,09,27,15,45,25.60
2018,09,27,15,46,25.50
2018,09,27,15,47,25.50
2018,09,27,15,48,25.50
2018,09,27,15,49,25.40
2018,09,27,15,50,25.40
2018,09,27,15,51,25.40
2018,09,27,15,52,25.50
2018,09,27,15,53,25.50
2018,09,27,15,54,25.50
2018,09,27,15,55,25.50
2018,09,27,15,56,25.50
2018,09,27,15,57,25.40
2018,09,27,15,58,25.40
2018,09,27,15,59,25.50
2018,09,27,16,00,25.50
2018,09,27,16,01,25.50
2018,09,27,16,02,25.50
2018,09,27,16,03,25.50
2018,09,27,16,04,25.50
2018,09,27,16,05,25.50
2018,09,27,16,06,25.50
2018,09,27,16,07,25.50
2018,09,27,16,08,25.50
2018,09,27,16,09,25.50
2018,09,27,16,10,25.60
2018,09,27,16,11,25.60
2018,09,27,16,12,25.60
2018,09,27,16,13,25.60
2018,09,27,16,14,25.60
2018,09,27,16,15,25.60
2018,09,27,16,16,25.70
2018,09,27,16,17,25.70
2018,09,27,16,18,25.70
2018,09,27,16,19,25.80
2018,09,27,16,20,25.80
2018,09,27,16,21,25.80
2018,09,27,16,22,25.80
2018,09,27,16,23,25.80
2018,09,27,16,24,25.80
2018,09,27,16,25,25.80
2018,09,27,16,26,25.80
2018,09,27,16,27,25.70
2018,09,27,16,28,25.70
2018,09,27,16,29,25.60
2018,09,27,16,30,25.60
2018,09,27,16,31,25.50
2018,09,27,16,32,25.40
2018,09,27,16,33,25.40
2018,09,27,16,34,25.40
2018,09,27,16,35,25.30
2018,09,27,16,36,25.30
2018,09,27,16,37,25.30
2018,09,27,16,38,25.40
2018,09,27,16,39,25.40
2018,09,27,16,40,25.40
2018,09,27,16,41,25.40
2018,09,27,16,42,25.40
2018,09,27,16,43,25.50
2018,09,27,16,44,25.50
2018,09,27,16,45,25.40
2018,09,27,16,46,25.40
2018,09,27,16,47,25.40
2018,09,27,16,48,25.40
2018,09,27,16,49,25.40
2018,09,27,16,50,25.40
2018,09,27,16,51,25.40
2018,09,27,16,52,25.40
2018,09,27,16,53,25.30
2018,09,27,16,54,25.30
2018,09,27,16,55,25.20
2018,09,27,16,56,25.20
2018,09,27,16,57,25.10
2018,09,27,16,58,25.10
2018,09,27,16,59,25.10
2018,09,27,17,00,25.20
2018,09,27,17,01,25.20
2018,09,27,17,02,25.20
2018,09,27,17,03,25.10
2018,09,27,17,04,25.10
2018,09,27,17,05,25.10
2018,09,27,17,06,25.00
2018,09,27,17,07,24.90
2018,09,27,17,08,24.90
2018,09,27,17,09,24.80
2018,09,27,17,10,24.80
2018,09,27,17,11,24.80
2018,09,27,17,12,24.80
2018,09,27,17,13,24.70
2018,09,27,17,14,24.70
2018,09,27,17,15,24.70
2018,09,27,17,16,24.70
2018,09,27,17,17,24.70
2018,09,27,17,18,24.60
2018,09,27,17,19,24.60
2018,09,27,17,20,24.50
2018,09,27,17,21,24.40
2018,09,27,17,22,24.40
2018,09,27,17,23,24.30
2018,09,27,17,24,24.30
2018,09,27,17,25,24.30
2018,09,27,17,26,24.30
2018,09,27,17,27,24.30
2018,09,27,17,28,24.20
2018,09,27,17,29,24.20
2018,09,27,17,30,24.20
2018,09,27,17,31,24.20
2018,09,27,17,32,24.10
2018,09,27,17,33,24.10
2018,09,27,17,34,24.10
2018,09,27,17,35,24.00